GSAT0219 (GALILEO 23)

Last updated on Sat Nov 01 2025 00:02:34 GMT+0000 (Coordinated Universal Time)

1 43566U 18060C 25302.97746656 -.00000063 00000+0 00000+0 0 9999 2 43566 57.2404 348.0060 0005105 275.3430 84.6644 1.70475975 45268
UTC large
Height (km)
Speed (km/s)
/
Latitude / Longitude
Inclination (degrees)
Orbital Period (minutes)
Azimuth
Elevation
Range (km)
Doppler Factor

Next 0 passes for location: London (51.5072 / 0.1276)

Sorry there are no passes over London.